Year,Month,Day,Hour,Minute,Value (Times are PST for temperature in C)
2010,07,21,00,00,15.10
2010,07,21,00,01,15.10
2010,07,21,00,02,15.10
2010,07,21,00,03,15.00
2010,07,21,00,04,15.00
2010,07,21,00,05,15.00
2010,07,21,00,06,15.00
2010,07,21,00,07,15.00
2010,07,21,00,08,15.00
2010,07,21,00,09,15.00
2010,07,21,00,10,15.00
2010,07,21,00,11,15.00
2010,07,21,00,12,14.90
2010,07,21,00,13,14.90
2010,07,21,00,14,14.90
2010,07,21,00,15,14.90
2010,07,21,00,16,14.90
2010,07,21,00,17,14.90
2010,07,21,00,18,14.90
2010,07,21,00,19,14.90
2010,07,21,00,20,14.90
2010,07,21,00,21,14.90
2010,07,21,00,22,14.90
2010,07,21,00,23,14.90
2010,07,21,00,24,14.90
2010,07,21,00,25,15.00
2010,07,21,00,26,15.00
2010,07,21,00,27,15.00
2010,07,21,00,28,15.00
2010,07,21,00,29,15.00
2010,07,21,00,30,15.00
2010,07,21,00,31,15.00
2010,07,21,00,32,15.00
2010,07,21,00,33,15.00
2010,07,21,00,34,15.00
2010,07,21,00,35,15.00
2010,07,21,00,36,15.00
2010,07,21,00,37,15.00
2010,07,21,00,38,15.10
2010,07,21,00,39,15.10
2010,07,21,00,40,15.10
2010,07,21,00,41,15.10
2010,07,21,00,42,15.10
2010,07,21,00,43,15.00
2010,07,21,00,44,15.00
2010,07,21,00,45,14.90
2010,07,21,00,46,14.90
2010,07,21,00,47,14.80
2010,07,21,00,48,14.80
2010,07,21,00,49,14.80
2010,07,21,00,50,14.70
2010,07,21,00,51,14.60
2010,07,21,00,52,14.50
2010,07,21,00,53,14.50
2010,07,21,00,54,14.40
2010,07,21,00,55,14.20
2010,07,21,00,56,14.20
2010,07,21,00,57,14.10
2010,07,21,00,58,14.00
2010,07,21,00,59,13.90
2010,07,21,01,00,13.90
2010,07,21,01,01,13.80
2010,07,21,01,02,13.70
2010,07,21,01,03,13.70
2010,07,21,01,04,13.70
2010,07,21,01,05,13.60
2010,07,21,01,06,13.50
2010,07,21,01,07,13.50
2010,07,21,01,08,13.40
2010,07,21,01,09,13.30
2010,07,21,01,10,13.30
2010,07,21,01,11,13.30
2010,07,21,01,12,13.20
2010,07,21,01,13,13.20
2010,07,21,01,14,13.20
2010,07,21,01,15,13.10
2010,07,21,01,16,13.10
2010,07,21,01,17,13.00
2010,07,21,01,18,13.00
2010,07,21,01,19,12.90
2010,07,21,01,20,12.90
2010,07,21,01,21,12.90
2010,07,21,01,22,12.80
2010,07,21,01,23,12.80
2010,07,21,01,24,12.80
2010,07,21,01,25,12.80
2010,07,21,01,26,12.80
2010,07,21,01,27,12.80
2010,07,21,01,28,12.80
2010,07,21,01,29,12.70
2010,07,21,01,30,12.70
2010,07,21,01,31,12.60
2010,07,21,01,32,12.60
2010,07,21,01,33,12.50
2010,07,21,01,34,12.50
2010,07,21,01,35,12.50
2010,07,21,01,36,12.40
2010,07,21,01,37,12.40
2010,07,21,01,38,12.40
2010,07,21,01,39,12.30
2010,07,21,01,40,12.30
2010,07,21,01,41,12.30
2010,07,21,01,42,12.30
2010,07,21,01,43,12.30
2010,07,21,01,44,12.30
2010,07,21,01,45,12.30
2010,07,21,01,46,12.30
2010,07,21,01,47,12.30
2010,07,21,01,48,12.30
2010,07,21,01,49,12.30
2010,07,21,01,50,12.30
2010,07,21,01,51,12.30
2010,07,21,01,52,12.30
2010,07,21,01,53,12.30
2010,07,21,01,54,12.30
2010,07,21,01,55,12.30
2010,07,21,01,56,12.30
2010,07,21,01,57,12.30
2010,07,21,01,58,12.30
2010,07,21,01,59,12.30
2010,07,21,02,00,12.30
2010,07,21,02,01,12.30
2010,07,21,02,02,12.30
2010,07,21,02,03,12.30
2010,07,21,02,04,12.30
2010,07,21,02,05,12.30
2010,07,21,02,06,12.30
2010,07,21,02,07,12.30
2010,07,21,02,08,12.30
2010,07,21,02,09,12.20
2010,07,21,02,10,12.20
2010,07,21,02,11,12.20
2010,07,21,02,12,12.20
2010,07,21,02,13,12.20
2010,07,21,02,14,12.20
2010,07,21,02,15,12.20
2010,07,21,02,16,12.20
2010,07,21,02,17,12.20
2010,07,21,02,18,12.20
2010,07,21,02,19,12.20
2010,07,21,02,20,12.20
2010,07,21,02,21,12.20
2010,07,21,02,22,12.20
2010,07,21,02,23,12.20
2010,07,21,02,24,12.20
2010,07,21,02,25,12.20
2010,07,21,02,26,12.20
2010,07,21,02,27,12.20
2010,07,21,02,28,12.20
2010,07,21,02,29,12.20
2010,07,21,02,30,12.20
2010,07,21,02,31,12.10
2010,07,21,02,32,12.10
2010,07,21,02,33,12.10
2010,07,21,02,34,12.10
2010,07,21,02,35,12.10
2010,07,21,02,36,12.10
2010,07,21,02,37,12.10
2010,07,21,02,38,12.00
2010,07,21,02,39,12.00
2010,07,21,02,40,12.00
2010,07,21,02,41,12.00
2010,07,21,02,42,12.00
2010,07,21,02,43,12.00
2010,07,21,02,44,12.00
2010,07,21,02,45,11.90
2010,07,21,02,46,11.90
2010,07,21,02,47,11.90
2010,07,21,02,48,11.90
2010,07,21,02,49,11.90
2010,07,21,02,50,11.80
2010,07,21,02,51,11.80
2010,07,21,02,52,11.80
2010,07,21,02,53,11.90
2010,07,21,02,54,11.90
2010,07,21,02,55,11.90
2010,07,21,02,56,11.90
2010,07,21,02,57,11.90
2010,07,21,02,58,11.90
2010,07,21,02,59,11.90
2010,07,21,03,00,11.90
2010,07,21,03,01,12.00
2010,07,21,03,02,12.00
2010,07,21,03,03,12.00
2010,07,21,03,04,12.00
2010,07,21,03,05,12.00
2010,07,21,03,06,12.10
2010,07,21,03,07,12.10
2010,07,21,03,08,12.10
2010,07,21,03,09,12.20
2010,07,21,03,10,12.20
2010,07,21,03,11,12.20
2010,07,21,03,12,12.30
2010,07,21,03,13,12.30
2010,07,21,03,14,12.30
2010,07,21,03,15,12.30
2010,07,21,03,16,12.30
2010,07,21,03,17,12.30
2010,07,21,03,18,12.30
2010,07,21,03,19,12.30
2010,07,21,03,20,12.20
2010,07,21,03,21,12.20
2010,07,21,03,22,12.20
2010,07,21,03,23,12.20
2010,07,21,03,24,12.20
2010,07,21,03,25,12.20
2010,07,21,03,26,12.20
2010,07,21,03,27,12.20
2010,07,21,03,28,12.20
2010,07,21,03,29,12.20
2010,07,21,03,30,12.20
2010,07,21,03,31,12.20
2010,07,21,03,32,12.10
2010,07,21,03,33,12.10
2010,07,21,03,34,12.10
2010,07,21,03,35,12.10
2010,07,21,03,36,12.00
2010,07,21,03,37,12.00
2010,07,21,03,38,11.90
2010,07,21,03,39,11.90
2010,07,21,03,40,11.80
2010,07,21,03,41,11.80
2010,07,21,03,42,11.80
2010,07,21,03,43,11.80
2010,07,21,03,44,11.70
2010,07,21,03,45,11.70
2010,07,21,03,46,11.70
2010,07,21,03,47,11.60
2010,07,21,03,48,11.60
2010,07,21,03,49,11.60
2010,07,21,03,50,11.60
2010,07,21,03,51,11.60
2010,07,21,03,52,11.60
2010,07,21,03,53,11.60
2010,07,21,03,54,11.60
2010,07,21,03,55,11.60
2010,07,21,03,56,11.60
2010,07,21,03,57,11.60
2010,07,21,03,58,11.60
2010,07,21,03,59,11.50
2010,07,21,04,00,11.40
2010,07,21,04,01,11.40
2010,07,21,04,02,11.40
2010,07,21,04,03,11.40
2010,07,21,04,04,11.40
2010,07,21,04,05,11.40
2010,07,21,04,06,11.40
2010,07,21,04,07,11.40
2010,07,21,04,08,11.40
2010,07,21,04,09,11.40
2010,07,21,04,10,11.40
2010,07,21,04,11,11.40
2010,07,21,04,12,11.40
2010,07,21,04,13,11.40
2010,07,21,04,14,11.30
2010,07,21,04,15,11.30
2010,07,21,04,16,11.30
2010,07,21,04,17,11.30
2010,07,21,04,18,11.30
2010,07,21,04,19,11.30
2010,07,21,04,20,11.30
2010,07,21,04,21,11.30
2010,07,21,04,22,11.30
2010,07,21,04,23,11.30
2010,07,21,04,24,11.30
2010,07,21,04,25,11.30
2010,07,21,04,26,11.30
2010,07,21,04,27,11.30
2010,07,21,04,28,11.30
2010,07,21,04,29,11.30
2010,07,21,04,30,11.30
2010,07,21,04,31,11.30
2010,07,21,04,32,11.30
2010,07,21,04,33,11.30
2010,07,21,04,34,11.30
2010,07,21,04,35,11.30
2010,07,21,04,36,11.30
2010,07,21,04,37,11.30
2010,07,21,04,38,11.30
2010,07,21,04,39,11.30
2010,07,21,04,40,11.30
2010,07,21,04,41,11.30
2010,07,21,04,42,11.30
2010,07,21,04,43,11.30
2010,07,21,04,44,11.20
2010,07,21,04,45,11.20
2010,07,21,04,46,11.20
2010,07,21,04,47,11.20
2010,07,21,04,48,11.20
2010,07,21,04,49,11.20
2010,07,21,04,50,11.20
2010,07,21,04,51,11.20
2010,07,21,04,52,11.20
2010,07,21,04,53,11.20
2010,07,21,04,54,11.20
2010,07,21,04,55,11.20
2010,07,21,04,56,11.20
2010,07,21,04,57,11.20
2010,07,21,04,58,11.20
2010,07,21,04,59,11.20
2010,07,21,05,00,11.20
2010,07,21,05,01,11.20
2010,07,21,05,02,11.20
2010,07,21,05,03,11.20
2010,07,21,05,04,11.20
2010,07,21,05,05,11.20
2010,07,21,05,06,11.20
2010,07,21,05,07,11.20
2010,07,21,05,08,11.20
2010,07,21,05,09,11.20
2010,07,21,05,10,11.20
2010,07,21,05,11,11.20
2010,07,21,05,12,11.20
2010,07,21,05,13,11.20
2010,07,21,05,14,11.20
2010,07,21,05,15,11.20
2010,07,21,05,16,11.20
2010,07,21,05,17,11.20
2010,07,21,05,18,11.20
2010,07,21,05,19,11.20
2010,07,21,05,20,11.20
2010,07,21,05,21,11.20
2010,07,21,05,22,11.20
2010,07,21,05,23,11.20
2010,07,21,05,24,11.20
2010,07,21,05,25,11.20
2010,07,21,05,26,11.20
2010,07,21,05,27,11.20
2010,07,21,05,28,11.20
2010,07,21,05,29,11.20
2010,07,21,05,30,11.20
2010,07,21,05,31,11.20
2010,07,21,05,32,11.20
2010,07,21,05,33,11.30
2010,07,21,05,34,11.30
2010,07,21,05,35,11.30
2010,07,21,05,36,11.30
2010,07,21,05,37,11.30
2010,07,21,05,38,11.20
2010,07,21,05,39,11.20
2010,07,21,05,40,11.30
2010,07,21,05,41,11.30
2010,07,21,05,42,11.20
2010,07,21,05,43,11.30
2010,07,21,05,44,11.30
2010,07,21,05,45,11.30
2010,07,21,05,46,11.30
2010,07,21,05,47,11.30
2010,07,21,05,48,11.30
2010,07,21,05,49,11.30
2010,07,21,05,50,11.30
2010,07,21,05,51,11.30
2010,07,21,05,52,11.30
2010,07,21,05,53,11.40
2010,07,21,05,54,11.40
2010,07,21,05,55,11.40
2010,07,21,05,56,11.40
2010,07,21,05,57,11.50
2010,07,21,05,58,11.60
2010,07,21,05,59,11.60
2010,07,21,06,00,11.70
2010,07,21,06,01,11.70
2010,07,21,06,02,11.70
2010,07,21,06,03,11.80
2010,07,21,06,04,11.80
2010,07,21,06,05,11.80
2010,07,21,06,06,11.80
2010,07,21,06,07,11.80
2010,07,21,06,08,11.80
2010,07,21,06,09,11.80
2010,07,21,06,10,11.90
2010,07,21,06,11,11.90
2010,07,21,06,12,11.90
2010,07,21,06,13,12.00
2010,07,21,06,14,12.00
2010,07,21,06,15,12.00
2010,07,21,06,16,12.10
2010,07,21,06,17,12.10
2010,07,21,06,18,12.10
2010,07,21,06,19,12.10
2010,07,21,06,20,12.10
2010,07,21,06,21,12.10
2010,07,21,06,22,12.20
2010,07,21,06,23,12.20
2010,07,21,06,24,12.20
2010,07,21,06,25,12.20
2010,07,21,06,26,12.30
2010,07,21,06,27,12.30
2010,07,21,06,28,12.30
2010,07,21,06,29,12.30
2010,07,21,06,30,12.40
2010,07,21,06,31,12.40
2010,07,21,06,32,12.40
2010,07,21,06,33,12.40
2010,07,21,06,34,12.40
2010,07,21,06,35,12.50
2010,07,21,06,36,12.50
2010,07,21,06,37,12.60
2010,07,21,06,38,12.60
2010,07,21,06,39,12.60
2010,07,21,06,40,12.70
2010,07,21,06,41,12.80
2010,07,21,06,42,12.80
2010,07,21,06,43,12.80
2010,07,21,06,44,12.90
2010,07,21,06,45,12.90
2010,07,21,06,46,13.00
2010,07,21,06,47,13.00
2010,07,21,06,48,13.10
2010,07,21,06,49,13.20
2010,07,21,06,50,13.30
2010,07,21,06,51,13.30
2010,07,21,06,52,13.40
2010,07,21,06,53,13.40
2010,07,21,06,54,13.50
2010,07,21,06,55,13.60
2010,07,21,06,56,13.60
2010,07,21,06,57,13.70
2010,07,21,06,58,13.70
2010,07,21,06,59,13.80
2010,07,21,07,00,13.80
2010,07,21,07,01,13.90
2010,07,21,07,02,14.00
2010,07,21,07,03,14.00
2010,07,21,07,04,13.90
2010,07,21,07,05,13.90
2010,07,21,07,06,13.90
2010,07,21,07,07,13.90
2010,07,21,07,08,13.90
2010,07,21,07,09,13.90
2010,07,21,07,10,13.90
2010,07,21,07,11,14.00
2010,07,21,07,12,14.10
2010,07,21,07,13,14.10
2010,07,21,07,14,14.20
2010,07,21,07,15,14.20
2010,07,21,07,16,14.30
2010,07,21,07,17,14.40
2010,07,21,07,18,14.50
2010,07,21,07,19,14.50
2010,07,21,07,20,14.60
2010,07,21,07,21,14.70
2010,07,21,07,22,14.80
2010,07,21,07,23,14.80
2010,07,21,07,24,14.90
2010,07,21,07,25,15.00
2010,07,21,07,26,15.00
2010,07,21,07,27,15.10
2010,07,21,07,28,15.10
2010,07,21,07,29,15.20
2010,07,21,07,30,15.30
2010,07,21,07,31,15.40
2010,07,21,07,32,15.50
2010,07,21,07,33,15.60
2010,07,21,07,34,15.60
2010,07,21,07,35,15.70
2010,07,21,07,36,15.80
2010,07,21,07,37,15.90
2010,07,21,07,38,16.00
2010,07,21,07,39,16.10
2010,07,21,07,40,16.20
2010,07,21,07,41,16.30
2010,07,21,07,42,16.40
2010,07,21,07,43,16.50
2010,07,21,07,44,16.60
2010,07,21,07,45,16.70
2010,07,21,07,46,16.80
2010,07,21,07,47,16.80
2010,07,21,07,48,16.90
2010,07,21,07,49,17.00
2010,07,21,07,50,17.00
2010,07,21,07,51,17.10
2010,07,21,07,52,17.20
2010,07,21,07,53,17.20
2010,07,21,07,54,17.30
2010,07,21,07,55,17.30
2010,07,21,07,56,17.40
2010,07,21,07,57,17.50
2010,07,21,07,58,17.50
2010,07,21,07,59,17.60
2010,07,21,08,00,17.70
2010,07,21,08,01,17.80
2010,07,21,08,02,17.90
2010,07,21,08,03,17.80
2010,07,21,08,04,17.70
2010,07,21,08,05,17.60
2010,07,21,08,06,17.50
2010,07,21,08,07,17.30
2010,07,21,08,08,17.30
2010,07,21,08,09,17.30
2010,07,21,08,10,17.30
2010,07,21,08,11,17.30
2010,07,21,08,12,17.30
2010,07,21,08,13,17.30
2010,07,21,08,14,17.40
2010,07,21,08,15,17.40
2010,07,21,08,16,17.40
2010,07,21,08,17,17.50
2010,07,21,08,18,17.50
2010,07,21,08,19,17.60
2010,07,21,08,20,17.60
2010,07,21,08,21,17.60
2010,07,21,08,22,17.60
2010,07,21,08,23,17.60
2010,07,21,08,24,17.70
2010,07,21,08,25,17.70
2010,07,21,08,26,17.70
2010,07,21,08,27,17.70
2010,07,21,08,28,17.70
2010,07,21,08,29,17.80
2010,07,21,08,30,17.80
2010,07,21,08,31,17.80
2010,07,21,08,32,17.90
2010,07,21,08,33,17.90
2010,07,21,08,34,17.90
2010,07,21,08,35,17.90
2010,07,21,08,36,17.90
2010,07,21,08,37,17.90
2010,07,21,08,38,17.90
2010,07,21,08,39,17.90
2010,07,21,08,40,17.90
2010,07,21,08,41,17.90
2010,07,21,08,42,17.90
2010,07,21,08,43,17.90
2010,07,21,08,44,17.90
2010,07,21,08,45,17.90
2010,07,21,08,46,17.90
2010,07,21,08,47,17.90
2010,07,21,08,48,17.90
2010,07,21,08,49,17.90
2010,07,21,08,50,17.90
2010,07,21,08,51,17.90
2010,07,21,08,52,17.90
2010,07,21,08,53,17.90
2010,07,21,08,54,17.90
2010,07,21,08,55,17.90
2010,07,21,08,56,17.90
2010,07,21,08,57,18.00
2010,07,21,08,58,18.10
2010,07,21,08,59,18.20
2010,07,21,09,00,18.20
2010,07,21,09,01,18.20
2010,07,21,09,02,18.20
2010,07,21,09,03,18.20
2010,07,21,09,04,18.30
2010,07,21,09,05,18.30
2010,07,21,09,06,18.30
2010,07,21,09,07,18.30
2010,07,21,09,08,18.30
2010,07,21,09,09,18.20
2010,07,21,09,10,18.20
2010,07,21,09,11,18.10
2010,07,21,09,12,18.10
2010,07,21,09,13,18.10
2010,07,21,09,14,18.10
2010,07,21,09,15,18.20
2010,07,21,09,16,18.20
2010,07,21,09,17,18.20
2010,07,21,09,18,18.30
2010,07,21,09,19,18.30
2010,07,21,09,20,18.30
2010,07,21,09,21,18.30
2010,07,21,09,22,18.30
2010,07,21,09,23,18.30
2010,07,21,09,24,18.30
2010,07,21,09,25,18.30
2010,07,21,09,26,18.30
2010,07,21,09,27,18.30
2010,07,21,09,28,18.40
2010,07,21,09,29,18.30
2010,07,21,09,30,18.30
2010,07,21,09,31,18.30
2010,07,21,09,32,18.20
2010,07,21,09,33,18.20
2010,07,21,09,34,18.20
2010,07,21,09,35,18.10
2010,07,21,09,36,18.10
2010,07,21,09,37,18.10
2010,07,21,09,38,18.10
2010,07,21,09,39,18.20
2010,07,21,09,40,18.20
2010,07,21,09,41,18.30
2010,07,21,09,42,18.30
2010,07,21,09,43,18.30
2010,07,21,09,44,18.30
2010,07,21,09,45,18.30
2010,07,21,09,46,18.20
2010,07,21,09,47,18.20
2010,07,21,09,48,18.20
2010,07,21,09,49,18.20
2010,07,21,09,50,18.20
2010,07,21,09,51,18.20
2010,07,21,09,52,18.30
2010,07,21,09,53,18.30
2010,07,21,09,54,18.50
2010,07,21,09,55,18.50
2010,07,21,09,56,18.60
2010,07,21,09,57,18.60
2010,07,21,09,58,18.50
2010,07,21,09,59,18.40
2010,07,21,10,00,18.30
2010,07,21,10,01,18.20
2010,07,21,10,02,18.30
2010,07,21,10,03,18.30
2010,07,21,10,04,18.40
2010,07,21,10,05,18.40
2010,07,21,10,06,18.40
2010,07,21,10,07,18.40
2010,07,21,10,08,18.40
2010,07,21,10,09,18.20
2010,07,21,10,10,18.20
2010,07,21,10,11,18.20
2010,07,21,10,12,18.10
2010,07,21,10,13,18.10
2010,07,21,10,14,18.20
2010,07,21,10,15,18.20
2010,07,21,10,16,18.30
2010,07,21,10,17,18.40
2010,07,21,10,18,18.40
2010,07,21,10,19,18.40
2010,07,21,10,20,18.50
2010,07,21,10,21,18.50
2010,07,21,10,22,18.40
2010,07,21,10,23,18.30
2010,07,21,10,24,18.20
2010,07,21,10,25,18.10
2010,07,21,10,26,17.90
2010,07,21,10,27,18.00
2010,07,21,10,28,18.00
2010,07,21,10,29,17.90
2010,07,21,10,30,17.90
2010,07,21,10,31,18.00
2010,07,21,10,32,18.10
2010,07,21,10,33,18.20
2010,07,21,10,34,18.30
2010,07,21,10,35,18.30
2010,07,21,10,36,18.30
2010,07,21,10,37,18.30
2010,07,21,10,38,18.40
2010,07,21,10,39,18.40
2010,07,21,10,40,18.50
2010,07,21,10,41,18.60
2010,07,21,10,42,18.80
2010,07,21,10,43,18.80
2010,07,21,10,44,18.90
2010,07,21,10,45,18.90
2010,07,21,10,46,18.90
2010,07,21,10,47,18.90
2010,07,21,10,48,18.90
2010,07,21,10,49,18.90
2010,07,21,10,50,19.00
2010,07,21,10,51,19.10
2010,07,21,10,52,19.10
2010,07,21,10,53,19.10
2010,07,21,10,54,19.10
2010,07,21,10,55,19.10
2010,07,21,10,56,19.10
2010,07,21,10,57,19.00
2010,07,21,10,58,18.70
2010,07,21,10,59,18.50
2010,07,21,11,00,18.40
2010,07,21,11,01,18.30
2010,07,21,11,02,18.20
2010,07,21,11,03,18.20
2010,07,21,11,04,18.30
2010,07,21,11,05,18.30
2010,07,21,11,06,18.30
2010,07,21,11,07,18.20
2010,07,21,11,08,18.10
2010,07,21,11,09,18.10
2010,07,21,11,10,18.10
2010,07,21,11,11,18.10
2010,07,21,11,12,18.20
2010,07,21,11,13,18.30
2010,07,21,11,14,18.40
2010,07,21,11,15,18.50
2010,07,21,11,16,18.60
2010,07,21,11,17,18.70
2010,07,21,11,18,18.80
2010,07,21,11,19,18.90
2010,07,21,11,20,18.90
2010,07,21,11,21,18.80
2010,07,21,11,22,18.80
2010,07,21,11,23,18.70
2010,07,21,11,24,18.70
2010,07,21,11,25,18.70
2010,07,21,11,26,18.70
2010,07,21,11,27,18.60
2010,07,21,11,28,18.60
2010,07,21,11,29,18.50
2010,07,21,11,30,18.50
2010,07,21,11,31,18.50
2010,07,21,11,32,18.60
2010,07,21,11,33,18.60
2010,07,21,11,34,18.70
2010,07,21,11,35,18.80
2010,07,21,11,36,18.80
2010,07,21,11,37,18.90
2010,07,21,11,38,18.90
2010,07,21,11,39,18.80
2010,07,21,11,40,18.80
2010,07,21,11,41,18.70
2010,07,21,11,42,18.60
2010,07,21,11,43,18.40
2010,07,21,11,44,18.40
2010,07,21,11,45,18.30
2010,07,21,11,46,18.30
2010,07,21,11,47,18.40
2010,07,21,11,48,18.50
2010,07,21,11,49,18.50
2010,07,21,11,50,18.40
2010,07,21,11,51,18.30
2010,07,21,11,52,18.40
2010,07,21,11,53,18.40
2010,07,21,11,54,18.40
2010,07,21,11,55,18.40
2010,07,21,11,56,18.50
2010,07,21,11,57,18.70
2010,07,21,11,58,18.70
2010,07,21,11,59,18.70
2010,07,21,12,00,18.70
2010,07,21,12,01,18.60
2010,07,21,12,02,18.60
2010,07,21,12,03,18.70
2010,07,21,12,04,18.70
2010,07,21,12,05,18.80
2010,07,21,12,06,19.00
2010,07,21,12,07,19.10
2010,07,21,12,08,19.20
2010,07,21,12,09,19.20
2010,07,21,12,10,19.20
2010,07,21,12,11,19.30
2010,07,21,12,12,19.20
2010,07,21,12,13,19.20
2010,07,21,12,14,19.20
2010,07,21,12,15,19.10
2010,07,21,12,16,19.10
2010,07,21,12,17,19.10
2010,07,21,12,18,19.10
2010,07,21,12,19,19.00
2010,07,21,12,20,18.90
2010,07,21,12,21,19.00
2010,07,21,12,22,19.10
2010,07,21,12,23,19.20
2010,07,21,12,24,19.40
2010,07,21,12,25,19.60
2010,07,21,12,26,19.70
2010,07,21,12,27,19.70
2010,07,21,12,28,19.80
2010,07,21,12,29,19.90
2010,07,21,12,30,19.90
2010,07,21,12,31,19.90
2010,07,21,12,32,19.80
2010,07,21,12,33,19.70
2010,07,21,12,34,19.70
2010,07,21,12,35,19.70
2010,07,21,12,36,19.70
2010,07,21,12,37,19.80
2010,07,21,12,38,19.90
2010,07,21,12,39,19.90
2010,07,21,12,40,19.90
2010,07,21,12,41,19.80
2010,07,21,12,42,19.80
2010,07,21,12,43,19.80
2010,07,21,12,44,19.80
2010,07,21,12,45,19.80
2010,07,21,12,46,19.80
2010,07,21,12,47,19.80
2010,07,21,12,48,19.80
2010,07,21,12,49,19.80
2010,07,21,12,50,19.80
2010,07,21,12,51,19.80
2010,07,21,12,52,19.80
2010,07,21,12,53,19.80
2010,07,21,12,54,19.90
2010,07,21,12,55,19.90
2010,07,21,12,56,19.90
2010,07,21,12,57,19.80
2010,07,21,12,58,19.80
2010,07,21,12,59,19.80
2010,07,21,13,00,19.80
2010,07,21,13,01,19.70
2010,07,21,13,02,19.70
2010,07,21,13,03,19.70
2010,07,21,13,04,19.60
2010,07,21,13,05,19.60
2010,07,21,13,06,19.60
2010,07,21,13,07,19.60
2010,07,21,13,08,19.70
2010,07,21,13,09,19.80
2010,07,21,13,10,19.90
2010,07,21,13,11,19.90
2010,07,21,13,12,20.00
2010,07,21,13,13,20.00
2010,07,21,13,14,19.90
2010,07,21,13,15,19.90
2010,07,21,13,16,19.90
2010,07,21,13,17,20.00
2010,07,21,13,18,19.90
2010,07,21,13,19,19.90
2010,07,21,13,20,19.90
2010,07,21,13,21,20.00
2010,07,21,13,22,20.10
2010,07,21,13,23,20.20
2010,07,21,13,24,20.40
2010,07,21,13,25,20.50
2010,07,21,13,26,20.60
2010,07,21,13,27,20.70
2010,07,21,13,28,20.80
2010,07,21,13,29,20.70
2010,07,21,13,30,20.50
2010,07,21,13,31,20.50
2010,07,21,13,32,20.60
2010,07,21,13,33,20.60
2010,07,21,13,34,20.60
2010,07,21,13,35,20.60
2010,07,21,13,36,20.50
2010,07,21,13,37,20.40
2010,07,21,13,38,20.40
2010,07,21,13,39,20.50
2010,07,21,13,40,20.60
2010,07,21,13,41,20.70
2010,07,21,13,42,20.70
2010,07,21,13,43,20.70
2010,07,21,13,44,20.60
2010,07,21,13,45,20.60
2010,07,21,13,46,20.70
2010,07,21,13,47,20.70
2010,07,21,13,48,20.70
2010,07,21,13,49,20.80
2010,07,21,13,50,20.70
2010,07,21,13,51,20.80
2010,07,21,13,52,20.70
2010,07,21,13,53,20.60
2010,07,21,13,54,20.60
2010,07,21,13,55,20.60
2010,07,21,13,56,20.60
2010,07,21,13,57,20.50
2010,07,21,13,58,20.50
2010,07,21,13,59,20.60
2010,07,21,14,00,20.80
2010,07,21,14,01,20.90
2010,07,21,14,02,21.10
2010,07,21,14,03,21.30
2010,07,21,14,04,21.40
2010,07,21,14,05,21.50
2010,07,21,14,06,21.60
2010,07,21,14,07,21.70
2010,07,21,14,08,21.80
2010,07,21,14,09,21.80
2010,07,21,14,10,21.80
2010,07,21,14,11,21.90
2010,07,21,14,12,21.90
2010,07,21,14,13,22.00
2010,07,21,14,14,22.00
2010,07,21,14,15,22.00
2010,07,21,14,16,22.20
2010,07,21,14,17,22.20
2010,07,21,14,18,22.10
2010,07,21,14,19,22.00
2010,07,21,14,20,22.00
2010,07,21,14,21,22.00
2010,07,21,14,22,22.20
2010,07,21,14,23,22.20
2010,07,21,14,24,22.30
2010,07,21,14,25,22.30
2010,07,21,14,26,22.30
2010,07,21,14,27,22.30
2010,07,21,14,28,22.20
2010,07,21,14,29,22.30
2010,07,21,14,30,22.40
2010,07,21,14,31,22.60
2010,07,21,14,32,22.70
2010,07,21,14,33,22.80
2010,07,21,14,34,22.90
2010,07,21,14,35,22.90
2010,07,21,14,36,22.90
2010,07,21,14,37,22.90
2010,07,21,14,38,22.90
2010,07,21,14,39,22.90
2010,07,21,14,40,22.80
2010,07,21,14,41,22.60
2010,07,21,14,42,22.60
2010,07,21,14,43,22.60
2010,07,21,14,44,22.50
2010,07,21,14,45,22.40
2010,07,21,14,46,22.40
2010,07,21,14,47,22.40
2010,07,21,14,48,22.40
2010,07,21,14,49,22.40
2010,07,21,14,50,22.40
2010,07,21,14,51,22.60
2010,07,21,14,52,22.60
2010,07,21,14,53,22.70
2010,07,21,14,54,22.70
2010,07,21,14,55,22.70
2010,07,21,14,56,22.80
2010,07,21,14,57,22.90
2010,07,21,14,58,22.90
2010,07,21,14,59,22.90
2010,07,21,15,00,22.90
2010,07,21,15,01,22.90
2010,07,21,15,02,22.90
2010,07,21,15,03,22.80
2010,07,21,15,04,22.70
2010,07,21,15,05,22.70
2010,07,21,15,06,22.80
2010,07,21,15,07,22.80
2010,07,21,15,08,22.90
2010,07,21,15,09,22.90
2010,07,21,15,10,22.80
2010,07,21,15,11,22.70
2010,07,21,15,12,22.60
2010,07,21,15,13,22.30
2010,07,21,15,14,22.00
2010,07,21,15,15,21.90
2010,07,21,15,16,21.90
2010,07,21,15,17,21.90
2010,07,21,15,18,21.80
2010,07,21,15,19,21.80
2010,07,21,15,20,21.70
2010,07,21,15,21,21.80
2010,07,21,15,22,21.90
2010,07,21,15,23,21.90
2010,07,21,15,24,22.00
2010,07,21,15,25,22.00
2010,07,21,15,26,22.00
2010,07,21,15,27,21.90
2010,07,21,15,28,21.90
2010,07,21,15,29,21.70
2010,07,21,15,30,21.70
2010,07,21,15,31,21.80
2010,07,21,15,32,21.80
2010,07,21,15,33,21.70
2010,07,21,15,34,21.60
2010,07,21,15,35,21.60
2010,07,21,15,36,21.60
2010,07,21,15,37,21.60
2010,07,21,15,38,21.60
2010,07,21,15,39,21.60
2010,07,21,15,40,21.70
2010,07,21,15,41,21.90
2010,07,21,15,42,22.00
2010,07,21,15,43,21.90
2010,07,21,15,44,21.70
2010,07,21,15,45,21.50
2010,07,21,15,46,21.30
2010,07,21,15,47,21.10
2010,07,21,15,48,21.10
2010,07,21,15,49,21.10
2010,07,21,15,50,21.10
2010,07,21,15,51,21.00
2010,07,21,15,52,21.00
2010,07,21,15,53,20.90
2010,07,21,15,54,20.90
2010,07,21,15,55,20.80
2010,07,21,15,56,20.80
2010,07,21,15,57,20.80
2010,07,21,15,58,20.80
2010,07,21,15,59,20.80
2010,07,21,16,00,20.90
2010,07,21,16,01,21.00
2010,07,21,16,02,20.90
2010,07,21,16,03,20.90
2010,07,21,16,04,20.80
2010,07,21,16,05,20.90
2010,07,21,16,06,20.90
2010,07,21,16,07,20.90
2010,07,21,16,08,21.00
2010,07,21,16,09,21.20
2010,07,21,16,10,21.30
2010,07,21,16,11,21.40
2010,07,21,16,12,21.30
2010,07,21,16,13,21.30
2010,07,21,16,14,21.10
2010,07,21,16,15,20.90
2010,07,21,16,16,20.90
2010,07,21,16,17,20.90
2010,07,21,16,18,20.80
2010,07,21,16,19,20.70
2010,07,21,16,20,20.50
2010,07,21,16,21,20.40
2010,07,21,16,22,20.50
2010,07,21,16,23,20.50
2010,07,21,16,24,20.60
2010,07,21,16,25,20.70
2010,07,21,16,26,20.80
2010,07,21,16,27,20.80
2010,07,21,16,28,20.90
2010,07,21,16,29,20.90
2010,07,21,16,30,21.00
2010,07,21,16,31,20.90
2010,07,21,16,32,20.80
2010,07,21,16,33,20.80
2010,07,21,16,34,20.80
2010,07,21,16,35,20.70
2010,07,21,16,36,20.70
2010,07,21,16,37,20.60
2010,07,21,16,38,20.70
2010,07,21,16,39,20.60
2010,07,21,16,40,20.60
2010,07,21,16,41,20.50
2010,07,21,16,42,20.50
2010,07,21,16,43,20.40
2010,07,21,16,44,20.30
2010,07,21,16,45,20.20
2010,07,21,16,46,20.20
2010,07,21,16,47,20.20
2010,07,21,16,48,20.20
2010,07,21,16,49,20.20
2010,07,21,16,50,20.30
2010,07,21,16,51,20.40
2010,07,21,16,52,20.50
2010,07,21,16,53,20.50
2010,07,21,16,54,20.60
2010,07,21,16,55,20.70
2010,07,21,16,56,20.50
2010,07,21,16,57,20.30
2010,07,21,16,58,20.20
2010,07,21,16,59,20.20
2010,07,21,17,00,20.20
2010,07,21,17,01,20.20
2010,07,21,17,02,20.30
2010,07,21,17,03,20.40
2010,07,21,17,04,20.40
2010,07,21,17,05,20.50
2010,07,21,17,06,20.50
2010,07,21,17,07,20.60
2010,07,21,17,08,20.60
2010,07,21,17,09,20.50
2010,07,21,17,10,20.40
2010,07,21,17,11,20.30
2010,07,21,17,12,20.30
2010,07,21,17,13,20.30
2010,07,21,17,14,20.10
2010,07,21,17,15,20.00
2010,07,21,17,16,19.90
2010,07,21,17,17,19.90
2010,07,21,17,18,19.90
2010,07,21,17,19,19.90